Weather reports worldwide

Advertisment
Valladolid, Spain (8141): temperature & dewpoint: 14.01.2021 15:00:00 - 20.01.2021 15:00:00 (CET)Valladolid, Spain (8141): wind speed: 14.01.2021 15:00:00 - 20.01.2021 15:00:00 (CET)Valladolid, Spain (8141): wind direction: 14.01.2021 15:00:00 - 20.01.2021 15:00:00 (CET)Valladolid, Spain (8141): reduced air pressure: 14.01.2021 15:00:00 - 20.01.2021 15:00:00 (CET)Valladolid, Spain (8141): visibility: 14.01.2021 15:00:00 - 20.01.2021 15:00:00 (CET)Valladolid, Spain (8141): precipitation: 14.01.2021 15:00:00 - 20.01.2021 15:00:00 (CET)
Date & Time tt [°C] td [°C] ff [km/h] ff [kn] dd ppp [hPa] vv [km] rr [mm]
20.01.2021 15:00:00 - - - - - - - -
20.01.2021 14:00:00 9,7 5,3 9 5 SSW 1004,3 20 0,0
20.01.2021 13:00:00 8,4 3,6 13 7 S 1005,9 20 -
20.01.2021 12:00:00 7,0 2,3 11 6 S 1007,2 20 0,0
20.01.2021 11:00:00 6,0 2,1 15 8 S 1007,6 20 0,0
20.01.2021 10:00:00 5,2 2,4 8 4 S 1008,8 15 -
20.01.2021 09:00:00 5,4 2,4 11 6 S 1008,6 18 0,0
20.01.2021 08:00:00 4,4 1,6 11 6 S 1009,5 20 0,0
20.01.2021 07:00:00 3,4 1,1 8 4 SSE 1010,4 15 -
20.01.2021 06:00:00 2,7 0,9 8 4 SSE 1011,4 19 0,0
20.01.2021 05:00:00 1,4 0,2 5 3 SSE 1013,7 19 0,0
20.01.2021 04:00:00 0,7 0,1 5 3 SSW 1015,4 17 -
20.01.2021 03:00:00 0,4 -0,5 2 1 WSW 1016,1 8 0,0
20.01.2021 02:00:00 0,6 -0,6 4 2 SSW 1016,9 10 0,0
20.01.2021 01:00:00 1,3 0,3 4 2 S 1017,8 13 -
20.01.2021 00:00:00 1,8 0,6 5 3 S 1018,4 14 0,0
19.01.2021 23:00:00 2,4 0,6 4 2 S 1018,9 18 0,0
19.01.2021 22:00:00 3,4 0,6 5 3 S 1019,0 20 -
19.01.2021 21:00:00 4,5 0,8 8 4 S 1019,3 20 0,0
19.01.2021 20:00:00 5,8 1,1 5 3 SSW 1019,3 20 0,0
19.01.2021 19:00:00 6,0 0,9 4 2 SSW 1019,7 20 -
19.01.2021 18:00:00 7,4 0,6 4 2 S 1019,6 20 0,0
19.01.2021 17:00:00 8,7 0,6 5 3 S 1019,5 20 0,0
19.01.2021 16:00:00 8,7 1,4 2 1 SSW 1020,1 20 -
19.01.2021 15:00:00 7,2 2,5 2 1 ESE 1021,2 20 0,0
19.01.2021 14:00:00 3,3 1,8 2 1 ENE 1023,7 13 0,0
19.01.2021 13:00:00 0,6 0,6 2 1 NE 1025,7 7 -
19.01.2021 12:00:00 -1,8 -1,8 2 1 NNW 1027,6 3,3 0,0
19.01.2021 11:00:00 -3,0 -3,1 2 1 NW 1028,3 0,7 0,0
19.01.2021 10:00:00 -4,4 -4,7 4 2 NW 1028,9 0,3 -
19.01.2021 09:00:00 -4,6 -4,9 4 2 NW 1029,3 0,6 0,0
19.01.2021 08:00:00 -4,5 -4,8 4 2 NW 1029,4 1,3 0,0
19.01.2021 07:00:00 -4,4 -4,5 4 2 NW 1029,4 0,2 -
19.01.2021 06:00:00 -4,1 -4,2 4 2 NNW 1029,4 0,2 0,0
19.01.2021 05:00:00 -4,0 -4,1 2 1 W 1029,6 0,2 0,0
19.01.2021 04:00:00 -3,7 -3,8 4 2 NW 1030,0 0,3 -
19.01.2021 03:00:00 -3,3 -3,4 4 2 NW 1030,2 0,4 0,0
19.01.2021 02:00:00 -3,2 -3,3 4 2 NNW 1030,6 0,2 0,0
19.01.2021 01:00:00 -2,9 -3,0 2 1 NNW 1030,9 7 -
19.01.2021 00:00:00 -2,5 -2,6 2 1 NW 1031,0 10 0,0
18.01.2021 23:00:00 -2,1 -2,2 2 1 NNW 1031,1 0,4 0,0
18.01.2021 22:00:00 -1,7 -1,8 4 2 NNW 1031,1 0,3 -
18.01.2021 21:00:00 -1,3 -1,6 4 2 NNW 1031,0 0,3 0,0
18.01.2021 20:00:00 -0,7 -1,0 4 2 NNW 1030,8 2,3 0,0
18.01.2021 19:00:00 0,3 -0,4 4 2 N 1030,4 1,5 -
18.01.2021 18:00:00 2,5 0,9 2 1 N 1029,2 20 0,0
18.01.2021 17:00:00 3,6 1,3 2 1 N 1028,7 19 0,0
18.01.2021 16:00:00 4,5 2,0 4 2 NNE 1028,6 8 -
18.01.2021 15:00:00 3,9 1,8 2 1 N 1029,3 12 0,0
18.01.2021 14:00:00 2,1 0,9 4 2 NNE 1030,7 6 0,0
18.01.2021 13:00:00 1,0 0,3 2 1 NNE 1032,1 4,0 -
18.01.2021 12:00:00 -0,4 -0,8 4 2 ENE 1033,2 - 0,0
18.01.2021 11:00:00 -2,1 -2,5 2 1 N 1033,8 11 0,0
18.01.2021 10:00:00 -3,7 -4,0 2 1 NNW 1034,2 6 -
18.01.2021 09:00:00 -4,9 -5,2 4 2 NNW 1034,5 - 0,0
18.01.2021 08:00:00 -5,0 -5,4 4 2 NW 1034,4 4,4 0,0
18.01.2021 07:00:00 -4,8 -5,1 2 1 NW 1034,0 3,0 -
18.01.2021 06:00:00 -4,6 -4,9 2 1 WNW 1033,6 7 0,0
18.01.2021 05:00:00 -4,4 -4,7 2 1 NW 1033,6 6 0,0
18.01.2021 04:00:00 -4,1 -4,2 2 1 NNW 1034,0 8 -
18.01.2021 03:00:00 -3,8 -3,9 2 1 NNW 1034,2 1,0 0,0
18.01.2021 02:00:00 -3,4 -3,5 4 2 NW 1034,3 0,4 0,0
18.01.2021 01:00:00 -2,4 -2,7 4 2 NW 1034,4 4,8 -
18.01.2021 00:00:00 -2,1 -2,4 2 1 N 1034,4 4,9 0,0
17.01.2021 23:00:00 -1,6 -1,7 2 1 N 1033,9 - 0,0
17.01.2021 22:00:00 -1,1 -1,4 2 1 N 1033,7 4,0 -
17.01.2021 21:00:00 -1,2 -1,5 4 2 ENE 1034,1 7 0,0
17.01.2021 20:00:00 -1,3 -1,6 2 1 NNW 1034,4 - 0,0
17.01.2021 19:00:00 -1,0 -1,4 2 1 NNW 1034,1 2,0 -
17.01.2021 18:00:00 -0,4 -1,0 4 2 WNW 1033,6 5 0,0
17.01.2021 17:00:00 0,2 -0,7 4 2 NW 1033,3 8 0,0
17.01.2021 16:00:00 0,7 -0,9 4 2 N 1033,2 5 -
17.01.2021 15:00:00 0,3 -1,1 2 1 N 1033,5 7 0,0
17.01.2021 14:00:00 -0,4 -1,4 4 2 N 1034,5 - 0,0
17.01.2021 13:00:00 -2,5 -2,8 4 2 N 1036,2 2,0 -
17.01.2021 12:00:00 -3,2 -3,3 4 2 N 1037,4 2,7 0,0
17.01.2021 11:00:00 -4,1 -4,2 2 1 NW 1037,3 1,3 0,0
17.01.2021 10:00:00 -4,7 -4,8 4 2 WNW 1037,0 0,3 -
17.01.2021 09:00:00 -4,8 -4,9 4 2 WNW 1036,3 2,7 0,0
17.01.2021 08:00:00 -4,8 -4,9 2 1 W 1036,0 1,4 0,0
17.01.2021 07:00:00 -4,7 -4,8 2 1 WNW 1036,0 0,2 -
17.01.2021 06:00:00 -4,8 -4,9 2 1 NNW 1036,0 0,7 0,0
17.01.2021 05:00:00 -4,1 -4,1 2 1 NE 1035,8 1,9 0,0
17.01.2021 04:00:00 -4,3 -4,4 4 2 NNW 1036,1 0,9 -
17.01.2021 03:00:00 -3,3 -3,4 4 2 NNW 1035,8 0,4 0,0
17.01.2021 02:00:00 -2,7 -2,7 2 1 NNW 1035,7 0,2 0,0
17.01.2021 01:00:00 -2,8 -2,8 2 1 NNE 1036,1 0,2 -
17.01.2021 00:00:00 -2,9 -2,9 2 1 WNW 1036,2 0,3 0,0
16.01.2021 23:00:00 -2,6 -2,7 4 2 NNW 1036,3 0,2 0,0
16.01.2021 22:00:00 -2,0 -2,1 2 1 NNW 1036,0 0,3 -
16.01.2021 21:00:00 -1,8 -1,9 2 1 ENE 1035,5 0,3 0,0
16.01.2021 20:00:00 -1,3 -1,4 2 1 NNW 1035,3 0,4 0,0
16.01.2021 19:00:00 -1,1 -1,2 4 2 NNW 1034,9 0,4 -
16.01.2021 18:00:00 -0,8 -0,9 2 1 E 1034,1 0,3 0,0
16.01.2021 17:00:00 -0,3 -0,6 2 1 N 1033,7 2,8 0,0
16.01.2021 16:00:00 -0,3 -0,6 4 2 N 1033,8 1,0 -
16.01.2021 15:00:00 -0,6 -0,9 4 2 E 1034,2 - 0,0
16.01.2021 14:00:00 -1,3 -1,4 2 1 S 1035,2 7 0,0
16.01.2021 13:00:00 -1,4 -1,5 4 2 SSE 1035,8 0,8 -
16.01.2021 12:00:00 -1,6 -1,6 2 1 N 1036,2 1,3 0,0
16.01.2021 11:00:00 -2,5 -2,5 2 1 NW 1036,1 0,2 0,0
16.01.2021 10:00:00 -3,0 -3,0 4 2 SE 1035,5 0,3 -
16.01.2021 09:00:00 -2,9 -2,9 4 2 E 1035,2 0,2 0,0
16.01.2021 08:00:00 -2,6 -2,6 2 1 S 1035,1 0,3 0,0
16.01.2021 07:00:00 -2,6 -2,6 2 1 N 1034,8 0,5 -
16.01.2021 06:00:00 -2,6 -2,6 2 1 S 1034,4 0,2 0,0
16.01.2021 05:00:00 -2,6 -2,6 4 2 S 1034,6 0,3 0,0
16.01.2021 04:00:00 -2,8 -2,8 2 1 ESE 1034,6 0,2 -
16.01.2021 03:00:00 -3,1 -3,1 2 1 N 1035,1 0,3 0,0
16.01.2021 02:00:00 -3,4 -3,5 4 2 NW 1035,4 0,8 0,0
16.01.2021 01:00:00 -3,0 -3,1 2 1 NNW 1035,4 0,2 -
16.01.2021 00:00:00 -2,4 -2,4 4 2 NNW 1035,0 0,4 0,0
15.01.2021 23:00:00 -2,5 -2,6 4 2 WNW 1035,2 0,5 0,0
15.01.2021 22:00:00 -2,0 -2,1 4 2 NW 1034,8 0,4 -
15.01.2021 21:00:00 -1,5 -1,6 5 3 NW 1034,7 0,6 0,0
15.01.2021 20:00:00 -0,9 -1,0 2 1 N 1034,2 0,4 0,0
15.01.2021 19:00:00 -0,5 -0,6 5 3 NNW 1033,6 0,4 -
15.01.2021 18:00:00 0,4 0,3 4 2 NNW 1033,2 1,0 0,0
15.01.2021 17:00:00 1,0 0,7 4 2 NNW 1032,6 2,2 0,0
15.01.2021 16:00:00 1,1 0,8 4 2 ENE 1032,8 0,4 -
15.01.2021 15:00:00 1,0 0,7 2 1 N 1033,1 2,6 0,0
15.01.2021 14:00:00 0,7 0,6 4 2 NNE 1033,7 2,2 0,0
15.01.2021 13:00:00 0,0 -0,1 2 1 N 1034,4 0,3 -
15.01.2021 12:00:00 -1,3 -1,4 4 2 NE 1035,8 1,7 0,0
15.01.2021 11:00:00 -2,4 -2,5 2 1 N 1035,8 1,7 0,0
15.01.2021 10:00:00 -3,2 -3,3 4 2 NW 1035,4 0,4 -
15.01.2021 09:00:00 -4,7 -5,0 2 1 NNW 1035,9 1,5 0,0
15.01.2021 08:00:00 -5,3 -5,6 4 2 NW 1036,3 1,5 0,0
15.01.2021 07:00:00 -5,5 -5,8 5 3 NW 1036,1 0,7 -
15.01.2021 06:00:00 -4,6 -4,7 2 1 NW 1035,6 0,7 0,0
15.01.2021 05:00:00 -5,5 -5,8 2 1 WNW 1035,5 1,8 0,0
15.01.2021 04:00:00 -4,9 -5,2 4 2 NNW 1035,4 0,6 -
15.01.2021 03:00:00 -4,0 -4,1 2 1 NNW 1034,8 0,2 0,0
15.01.2021 02:00:00 -3,7 -3,8 2 1 WNW 1035,0 0,2 0,0
15.01.2021 01:00:00 -3,4 -3,5 2 1 NW 1035,1 0,3 -
15.01.2021 00:00:00 -3,6 -3,7 2 1 WNW 1035,4 0,4 0,0
14.01.2021 23:00:00 -3,4 -3,5 2 1 WNW 1035,1 0,4 0,0
14.01.2021 22:00:00 -2,9 -3,0 4 2 WNW 1034,6 0,3 -
14.01.2021 21:00:00 -3,1 -3,2 2 1 W 1034,5 0,2 0,0
14.01.2021 20:00:00 -2,8 -3,1 2 1 NNW 1034,2 0,6 0,0
14.01.2021 19:00:00 -2,9 -3,2 4 2 NNW 1034,1 0,4 -
14.01.2021 18:00:00 -2,2 -2,6 4 2 N 1033,8 0,4 0,0
14.01.2021 17:00:00 -1,9 -2,3 2 1 NW 1033,4 0,7 0,0
14.01.2021 16:00:00 -1,5 -1,9 4 2 N 1033,2 0,4 -
14.01.2021 15:00:00 -1,3 -1,9 4 2 NNW 1032,8 3,5 0,0

tt = temperature
td = dewpoint
ff = wind speed
dd = wind direction
ppp = reduced air pressure
vv = visibility
rr = precipitation

Next stations